GW2061 Weather Reports


time (UTC)temp
C
wind
direction
speed
KPH
gust
KPH
rain 1hr
cm
rain 24hr
cm
rain mn
cm
humidity
%
barometer
mb
20260503072209 17 6 0.0 0.0 0.00 0.00 0.00 57 1020.1
20260503071706 17 137 0.0 0.0 0.00 0.00 0.00 59 1020.1
20260503071203 17 124 0.0 0.0 0.00 0.00 0.00 64 1020.1
20260503070659 17 120 0.0 0.0 0.00 0.00 0.00 67 1020.3
20260503070158 17 98 0.0 1.6 0.00 0.00 0.00 67 1020.3
20260503060122 15 17 0.0 0.0 0.00 0.00 0.00 69 1019.9
20260503055114 15 37 0.0 1.6 0.00 0.00 0.00 73 1019.8
20260503054609 14 10 3.2 3.2 0.00 0.00 0.00 75 1019.8
20260503054106 14 31 1.6 1.6 0.00 0.00 0.00 76 1019.5
20260503053604 14 339 1.6 1.6 0.00 0.00 0.00 76 1019.4
20260503053102 13 7 3.2 3.2 0.00 0.00 0.00 77 1019.5
20260503052558 13 3 1.6 3.2 0.00 0.00 0.00 77 1019.7
20260503052055 13 34 3.2 3.2 0.00 0.00 0.00 78 1019.5
20260503051550 13 22 1.6 3.2 0.00 0.00 0.00 78 1019.3
20260503051048 13 16 0.0 1.6 0.00 0.00 0.00 78 1019.4
20260503050544 13 6 1.6 3.2 0.00 0.00 0.00 77 1019.7
20260503050041 13 3 1.6 3.2 0.00 0.00 0.00 75 1019.5
20260503045538 13 342 1.6 1.6 0.00 0.00 0.00 74 1019.4
20260503045036 13 96 0.0 0.0 0.00 0.00 0.00 73 1019.4
20260503044532 13 328 0.0 0.0 0.00 0.00 0.00 72 1019.3
20260503044030 13 3 0.0 0.0 0.00 0.00 0.00 72 1019.2
20260503043526 13 46 0.0 1.6 0.00 0.00 0.00 72 1019.3
20260503043023 13 339 0.0 0.0 0.00 0.00 0.00 73 1019.4
20260503042520 12 339 0.0 1.6 0.00 0.00 0.00 73 1019.4
20260503042016 12 13 1.6 1.6 0.00 0.00 0.00 74 1019.5
20260503041513 12 34 3.2 3.2 0.00 0.00 0.00 75 1019.3
20260503041011 12 12 3.2 3.2 0.00 0.00 0.00 73 1019.5
20260503040508 12 16 1.6 3.2 0.00 0.00 0.00 71 1019.5
20260503040005 12 9 3.2 4.8 0.00 0.00 0.00 69 1019.2
20260503035502 13 43 3.2 3.2 0.00 0.00 0.00 68 1019.1
20260503034959 13 14 4.8 4.8 0.00 0.00 0.00 67 1019.3
20260503034456 13 23 3.2 3.2 0.00 0.00 0.00 65 1019.3
20260503033953 13 8 1.6 1.6 0.00 0.00 0.00 64 1019.3
20260503033450 13 341 1.6 1.6 0.00 0.00 0.00 64 1019.3
20260503032949 13 17 3.2 4.8 0.00 0.00 0.00 64 1019.3
20260503032447 13 46 1.6 3.2 0.00 0.00 0.00 64 1019.7
20260503031944 13 6 1.6 3.2 0.00 0.00 0.00 64 1019.4
20260503031442 13 36 1.6 1.6 0.00 0.00 0.00 65 1019.4
20260503030938 13 5 3.2 3.2 0.00 0.00 0.00 65 1019.3
20260503030434 13 346 1.6 3.2 0.00 0.00 0.00 64 1019.5
20260503025931 13 358 0.0 0.0 0.00 0.00 0.00 63 1019.7
20260503025428 13 31 1.6 3.2 0.00 0.00 0.00 61 1019.4
20260503024926 13 34 1.6 1.6 0.00 0.00 0.00 61 1019.4
20260503024422 13 44 3.2 3.2 0.00 0.00 0.00 62 1019.7
20260503023920 13 23 3.2 3.2 0.00 0.00 0.00 64 1019.5
20260503023417 13 321 3.2 3.2 0.00 0.00 0.00 64 1019.7
20260503022913 13 2 1.6 1.6 0.00 0.00 0.00 63 1019.8
20260503022408 13 31 1.6 1.6 0.00 0.00 0.00 63 1019.8
20260503021904 13 358 1.6 1.6 0.00 0.00 0.00 62 1019.9
20260503021401 13 16 3.2 3.2 0.00 0.00 0.00 62 1019.8
20260503020858 13 33 3.2 3.2 0.00 0.00 0.00 61 1019.8
20260503020356 13 358 3.2 3.2 0.00 0.00 0.00 61 1019.9
20260503015852 13 22 3.2 3.2 0.00 0.00 0.00 61 1020.0
20260503015349 13 15 1.6 3.2 0.00 0.00 0.00 61 1020.0
20260503014844 13 181 0.0 1.6 0.00 0.00 0.00 62 1020.1
20260503014343 13 318 0.0 0.0 0.00 0.00 0.00 62 1020.1
20260503013840 13 324 3.2 3.2 0.00 0.00 0.00 62 1019.9
20260503013337 13 73 0.0 0.0 0.00 0.00 0.00 61 1020.0
20260503012834 13 223 0.0 0.0 0.00 0.00 0.00 61 1020.0
20260503012332 13 130 0.0 0.0 0.00 0.00 0.00 62 1020.1
20260503011828 14 41 1.6 1.6 0.00 0.00 0.00 63 1020.2
20260503011325 14 6 1.6 1.6 0.00 0.00 0.00 62 1020.3
20260503010821 14 3 0.0 0.0 0.00 0.00 0.00 62 1020.2
20260503010319 13 24 1.6 3.2 0.00 0.00 0.00 63 1020.3
20260503005815 13 51 1.6 1.6 0.00 0.00 0.00 66 1020.2
20260503005313 13 32 1.6 1.6 0.00 0.00 0.00 66 1020.2
20260503004809 13 29 0.0 1.6 0.00 0.00 0.00 67 1020.4
20260503004307 13 178 0.0 0.0 0.00 0.00 0.00 67 1020.6
20260503003804 13 105 0.0 0.0 0.00 0.00 0.00 66 1020.3
20260503003301 13 33 1.6 1.6 0.00 0.00 0.00 66 1020.4
20260503002758 13 94 0.0 1.6 0.00 0.00 0.00 65 1020.5
20260503002255 13 358 0.0 1.6 0.00 0.00 0.00 63 1020.5
20260503001751 13 201 0.0 0.0 0.00 0.00 0.00 62 1020.5
20260503001247 14 197 0.0 0.0 0.00 0.00 0.00 60 1020.6
20260503000745 14 197 0.0 0.0 0.00 0.00 0.00 59 1020.6
20260503000242 14 197 0.0 0.0 0.00 0.00 0.00 59 1020.6
20260502235739 14 197 0.0 0.0 0.00 0.00 0.00 60 1020.7
20260502235237 14 197 0.0 0.0 0.00 0.00 0.00 60 1020.6
20260502234733 14 197 0.0 0.0 0.00 0.00 0.00 60 1020.7
20260502234230 14 196 0.0 0.0 0.00 0.00 0.00 61 1020.7
20260502233726 14 195 0.0 0.0 0.00 0.00 0.00 62 1020.8
20260502233223 14 195 0.0 0.0 0.00 0.00 0.00 62 1020.8
20260502232719 14 190 0.0 0.0 0.00 0.00 0.00 62 1020.7
20260502232216 14 184 0.0 0.0 0.00 0.00 0.00 62 1020.9
20260502231713 14 183 0.0 0.0 0.00 0.00 0.00 61 1020.7
20260502231211 14 182 0.0 0.0 0.00 0.00 0.00 61 1020.8
20260502230709 15 165 0.0 0.0 0.00 0.00 0.00 61 1020.8
20260502230207 15 158 0.0 0.0 0.00 0.00 0.00 61 1020.9
20260502225702 15 132 0.0 1.6 0.00 0.00 0.00 61 1020.7
20260502225200 15 175 0.0 0.0 0.00 0.00 0.00 61 1020.8
20260502224656 15 175 0.0 0.0 0.00 0.00 0.00 60 1021.1
20260502224153 15 167 0.0 0.0 0.00 0.00 0.00 59 1021.1
20260502223651 15 59 0.0 1.6 0.00 0.00 0.00 59 1021.2
20260502223149 15 49 0.0 1.6 0.00 0.00 0.00 59 1021.1
20260502222646 15 37 1.6 1.6 0.00 0.00 0.00 60 1020.8
20260502222143 15 16 3.2 3.2 0.00 0.00 0.00 61 1020.8
20260502221638 15 11 4.8 4.8 0.00 0.00 0.00 62 1021.0
20260502221135 15 29 3.2 3.2 0.00 0.00 0.00 62 1021.0
20260502220631 15 2 4.8 4.8 0.00 0.00 0.00 61 1021.1
20260502220122 15 37 1.6 1.6 0.00 0.00 0.00 61 1020.9
20260502215619 15 11 3.2 3.2 0.00 0.00 0.00 60 1021.1
20260502215116 15 341 1.6 3.2 0.00 0.00 0.00 58 1021.0
20260502214607 16 340 0.0 1.6 0.00 0.00 0.00 55 1021.0
20260502214105 16 45 0.0 0.0 0.00 0.00 0.00 53 1021.1
20260502213602 16 354 0.0 1.6 0.00 0.00 0.00 51 1021.1
20260502213059 16 31 0.0 0.0 0.00 0.00 0.00 50 1021.1
20260502212558 16 11 1.6 3.2 0.00 0.00 0.00 49 1020.9
20260502212055 16 29 3.2 3.2 0.00 0.00 0.00 49 1021.0
20260502211551 16 349 4.8 4.8 0.00 0.00 0.00 49 1020.9
20260502211048 16 21 4.8 4.8 0.00 0.00 0.00 51 1021.0
20260502210545 16 10 3.2 3.2 0.00 0.00 0.00 51 1021.0
20260502210042 16 13 3.2 3.2 0.00 0.00 0.00 51 1021.1
20260502205538 16 355 4.8 8.0 0.00 0.00 0.00 50 1020.9
20260502205036 16 18 1.6 3.2 0.00 0.00 0.00 50 1021.0
20260502204532 16 5 3.2 4.8 0.00 0.00 0.00 50 1021.0
20260502204030 16 7 4.8 4.8 0.00 0.00 0.00 50 1020.9
20260502203527 16 34 4.8 4.8 0.00 0.00 0.00 50 1021.0
20260502203024 16 25 3.2 3.2 0.00 0.00 0.00 50 1021.1
20260502202520 16 46 1.6 1.6 0.00 0.00 0.00 50 1020.9
20260502202019 16 162 0.0 0.0 0.00 0.00 0.00 51 1021.2
20260502201514 16 202 0.0 0.0 0.00 0.00 0.00 51 1021.2
20260502201011 16 351 0.0 0.0 0.00 0.00 0.00 52 1021.2
20260502200507 16 353 0.0 0.0 0.00 0.00 0.00 52 1021.2
20260502200005 16 348 0.0 0.0 0.00 0.00 0.00 51 1021.3
20260502195502 16 21 0.0 0.0 0.00 0.00 0.00 51 1021.2
20260502194958 16 17 0.0 0.0 0.00 0.00 0.00 51 1021.1
20260502194455 16 11 0.0 1.6 0.00 0.00 0.00 50 1021.1
20260502193950 16 175 0.0 0.0 0.00 0.00 0.00 50 1021.0
20260502193448 17 194 0.0 0.0 0.00 0.00 0.00 49 1021.0
20260502192944 17 159 0.0 0.0 0.00 0.00 0.00 49 1021.2
20260502192441 17 180 0.0 0.0 0.00 0.00 0.00 48 1020.8
20260502191938 17 198 0.0 0.0 0.00 0.00 0.00 47 1020.8
20260502191435 17 203 0.0 0.0 0.00 0.00 0.00 47 1021.0
20260502190933 17 201 0.0 0.0 0.00 0.00 0.00 47 1021.0
20260502190430 17 201 0.0 0.0 0.00 0.00 0.00 46 1020.8
20260502185926 18 191 0.0 0.0 0.00 0.00 0.00 45 1020.8
20260502185421 18 194 1.6 1.6 0.00 0.00 0.00 45 1020.8
20260502184919 17 188 0.0 1.6 0.00 0.00 0.00 45 1020.6
20260502184414 17 140 1.6 1.6 0.00 0.00 0.00 47 1020.7
20260502183911 17 198 0.0 0.0 0.00 0.00 0.00 46 1020.6
20260502183407 17 186 0.0 0.0 0.00 0.00 0.00 46 1020.3
20260502182903 18 183 0.0 0.0 0.00 0.00 0.00 46 1020.4
20260502182358 18 183 0.0 0.0 0.00 0.00 0.00 45 1020.5
20260502181855 18 190 0.0 0.0 0.00 0.00 0.00 46 1020.5
20260502181354 18 197 0.0 0.0 0.00 0.00 0.00 46 1020.6
20260502180851 18 168 0.0 0.0 0.00 0.00 0.00 45 1020.4
20260502180348 18 203 0.0 0.0 0.00 0.00 0.00 44 1020.3
20260502170306 21 194 0.0 0.0 0.00 0.00 0.00 39 1020.4
20260502164254 22 190 0.0 0.0 0.00 0.00 0.00 39 1020.3
20260502163749 22 196 0.0 0.0 0.00 0.00 0.00 38 1020.3
20260502163241 22 201 0.0 0.0 0.00 0.00 0.00 38 1020.4
20260502162738 22 214 0.0 1.6 0.00 0.00 0.00 38 1020.5
20260502162235 22 199 0.0 0.0 0.00 0.00 0.00 38 1020.4
20260502161732 22 196 0.0 0.0 0.00 0.00 0.00 38 1020.4
20260502161228 22 191 0.0 0.0 0.00 0.00 0.00 38 1020.6
20260502160726 22 177 1.6 1.6 0.00 0.00 0.00 37 1020.7
20260502160225 22 193 0.0 1.6 0.00 0.00 0.00 37 1020.5
20260502152149 24 171 1.6 1.6 0.00 0.00 0.00 34 1020.9
20260502151647 24 215 0.0 0.0 0.00 0.00 0.00 34 1020.9
20260502151144 25 213 0.0 0.0 0.00 0.00 0.00 32 1020.9
20260502150641 26 205 1.6 1.6 0.00 0.00 0.00 31 1020.9
20260502150137 26 212 0.0 0.0 0.00 0.00 0.00 30 1020.7
20260502130526 23 194 0.0 1.6 0.00 0.00 0.00 35 1022.2
20260502123509 23 193 0.0 0.0 0.00 0.00 0.00 35 1022.7
20260502123005 23 186 3.2 8.0 0.00 0.00 0.00 35 1022.8
20260502122502 24 171 3.2 4.8 0.00 0.00 0.00 34 1022.7
20260502122000 25 277 4.8 8.0 0.00 0.00 0.00 33 1022.7
20260502121457 24 196 1.6 3.2 0.00 0.00 0.00 35 1022.8
20260502120954 25 230 3.2 4.8 0.00 0.00 0.00 34 1022.8
20260502120450 25 203 0.0 0.0 0.00 0.00 0.00 34 1022.9
20260502115445 25 204 0.0 0.0 0.00 0.00 0.00 33 1023.0
20260502114941 25 204 1.6 1.6 0.00 0.00 0.00 34 1023.0
20260502114438 24 182 1.6 1.6 0.00 0.00 0.00 35 1023.2
20260502113935 23 179 0.0 0.0 0.00 0.00 0.00 35 1023.3
20260502113432 23 200 1.6 4.8 0.00 0.00 0.00 35 1023.2
20260502112931 23 196 0.0 0.0 0.00 0.00 0.00 36 1023.0
20260502112428 23 188 1.6 3.2 0.00 0.00 0.00 35 1023.3
20260502111926 23 189 1.6 3.2 0.00 0.00 0.00 35 1023.5
20260502111422 23 201 1.6 3.2 0.00 0.00 0.00 36 1023.6
20260502110920 23 179 0.0 1.6 0.00 0.00 0.00 37 1023.5
20260502110418 23 185 3.2 3.2 0.00 0.00 0.00 35 1023.6
20260502105915 23 220 1.6 1.6 0.00 0.00 0.00 36 1023.6
20260502105412 22 212 0.0 0.0 0.00 0.00 0.00 37 1023.8
20260502104910 23 193 0.0 1.6 0.00 0.00 0.00 36 1023.8
20260502104406 23 193 0.0 1.6 0.00 0.00 0.00 36 1023.8
20260502103904 23 217 0.0 1.6 0.00 0.00 0.00 35 1023.8
20260502103402 24 211 1.6 1.6 0.00 0.00 0.00 34 1023.9
20260502102858 24 207 0.0 0.0 0.00 0.00 0.00 32 1023.9
20260502102355 24 183 0.0 0.0 0.00 0.00 0.00 32 1024.0
20260502101852 23 190 0.0 0.0 0.00 0.00 0.00 34 1024.0
20260502101351 23 208 1.6 3.2 0.00 0.00 0.00 33 1024.1
20260502100848 23 200 1.6 3.2 0.00 0.00 0.00 32 1024.3
20260502100348 23 196 0.0 0.0 0.00 0.00 0.00 34 1024.0
20260502091321 22 213 0.0 0.0 0.00 0.00 0.00 38 1024.8
20260502090819 22 169 0.0 0.0 0.00 0.00 0.00 37 1024.9
20260502090315 22 213 0.0 0.0 0.00 0.00 0.00 38 1025.0